Flag for Germany Past Weather in Lutherstadt Eisleben, Saxony-Anhalt, Germany — Yesterday and Last 2 Weeks

Now
70 °F

Passing clouds.


Feels Like: 70 °F
Forecast: 56 / 74 °F
Wind: 9 mph from Southwest

Location: Leipzig-Schkeuditz

Current Time: May 30, 2016 at 8:23:52 PM

Latest Report: May 30, 2016 at 7:50 PM


Visibility: N/A

Pressure: 29.71 "Hg

Humidity: 60%

Dew Point: 55 °F

Location of Lutherstadt EislebenLocation

Past Weather in Lutherstadt Eisleben — Graph

°F

Lutherstadt Eisleben Temperature Yesterday

Maximum temperature yesterday: 77 °F (at 1:20 PM)
Minimum temperature yesterday: 61 °F (at 3:50 AM)
Average temperature yesterday: 69 °F

High & Low Weather Summary for the Past Weeks

 TemperatureHumidityPressure
High82 °F (May 22, 2:50 PM)100% (May 23, 9:20 PM)30.07 "Hg (May 23, 9:20 PM)
Low37 °F (May 17, 3:50 AM)28% (May 22, 3:20 PM)29.59 "Hg (May 30, 3:20 AM)
Average59 °F73%29.91 "Hg
* Reported May 15 6:20 PM — May 30 6:50 PM, Lutherstadt Eisleben, Weather by CustomWeather, © 2016

Note: Actual official high and low records may vary slightly from our data, if they occured in-between our weather recording intervals... More about our weather records

Advertising

Lutherstadt Eisleben Weather History for the Previous 24 Hours

Scroll right to see more
 ConditionsComfort  
Time TempWeatherWind HumidityBarometerVisibility
6:50 PM
Mon, May 30
73 °FScattered clouds.13 mph53%29.68 "HgN/A
6:20 PM73 °FScattered clouds.10 mph50%29.68 "HgN/A
5:50 PM75 °FScattered clouds.13 mph47%29.68 "HgN/A
5:20 PM75 °FScattered clouds.12 mph50%29.65 "HgN/A
4:50 PM75 °FScattered clouds.13 mph47%29.65 "HgN/A
4:20 PM77 °FScattered clouds.10 mph51%29.65 "HgN/A
3:50 PM77 °FScattered clouds.12 mph47%29.65 "HgN/A
3:20 PM73 °FPartly sunny.12 mph50%29.65 "HgN/A
2:50 PM73 °FPartly sunny.10 mph53%29.65 "HgN/A
2:20 PM75 °FScattered clouds.12 mph50%29.68 "HgN/A
1:50 PM75 °FBroken clouds.13 mph54%29.65 "HgN/A
1:20 PM73 °FScattered showers. Broken clouds.13 mph61%29.65 "HgN/A
12:50 PM72 °FScattered showers. Broken clouds.10 mph65%29.65 "HgN/A
12:20 PM72 °FScattered showers. Broken clouds.12 mph65%29.65 "HgN/A
11:50 AM70 °FPartly sunny.9 mph69%29.65 "HgN/A
11:20 AM70 °FBroken clouds.10 mph69%29.65 "HgN/A
10:50 AM72 °FScattered clouds.10 mph69%29.65 "HgN/A
10:20 AM72 °FScattered clouds.12 mph73%29.62 "HgN/A
9:50 AM72 °FScattered clouds.9 mph73%29.62 "HgN/A
9:20 AM70 °FPartly sunny.7 mph78%29.62 "HgN/A
8:50 AM68 °FPartly sunny.8 mph78%29.62 "HgN/A
8:20 AM66 °FPartly sunny.9 mph88%29.62 "HgN/A
7:50 AM66 °FBroken clouds.9 mph83%29.62 "HgN/A
7:20 AM64 °FBroken clouds.9 mph88%29.59 "HgN/A
6:50 AM64 °FScattered clouds.12 mph88%29.59 "HgN/A
6:20 AM63 °FSunny.9 mph88%29.59 "Hg10 mi
5:50 AM63 °FPartly cloudy.10 mph88%29.59 "HgN/A
5:20 AM63 °FPartly cloudy.10 mph88%29.59 "HgN/A
4:50 AM63 °FClear.12 mph88%29.59 "Hg10 mi
4:20 AM63 °FClear.12 mph88%29.59 "Hg10 mi
3:50 AM63 °FClear.12 mph94%29.59 "Hg10 mi
3:20 AM63 °FClear.12 mph94%29.59 "Hg10 mi
2:50 AM64 °FClear.10 mph88%29.62 "Hg10 mi
2:20 AM64 °FClear.10 mph88%29.62 "Hg10 mi
1:50 AM64 °FClear.12 mph88%29.62 "Hg10 mi
1:20 AM64 °FClear.10 mph88%29.62 "Hg10 mi
12:50 AM64 °FClear.9 mph88%29.65 "Hg10 mi
12:20 AM66 °FClear.9 mph88%29.65 "Hg10 mi
11:50 PM
Sun, May 29
68 °FClear.10 mph83%29.65 "Hg10 mi
11:20 PM66 °FClear.9 mph83%29.68 "Hg10 mi
10:50 PM66 °FClear.8 mph88%29.68 "Hg6 mi
10:20 PM68 °FFog.7 mph88%29.65 "Hg3 mi
9:50 PM68 °FFog.9 mph94%29.65 "Hg4 mi
9:20 PM70 °FBroken clouds.8 mph78%29.65 "HgN/A
8:50 PM70 °FBroken clouds.6 mph83%29.68 "HgN/A
8:20 PM70 °FBroken clouds.6 mph83%29.68 "HgN/A
Weather by CustomWeather, © 2016

See weather overviewHow to use our weather pages